Starlink 3546

operational
NORAD ID: 51718 Int'l Des: 2022-016 Owner: SPXS Country: US Constellation: starlink
LEOCIRCULAR

Starlink 3546について

説明を読み込み中...

リアルタイム位置

3D地球を読み込み中...

次回通過

高度履歴

Altitude vs Time

uPlot chart will show altitude changes over time

軌道要素

1 51718U 22016E 25303.96051911 -.00001023 00000-0 -46216-4 0 9999
2 51718 53.2174 191.4965 0001507 91.4175 268.6990 15.08838214204962
Epoch: Oct 30, 2025 • Age: 13 hours

現在のステータス

高度 539.7 km
速度 7.59 km/s
衛星直下点 8.20°N, 134.97°E
打ち上げ日 Feb 21, 2022
運用期間 3.6 years
タイプ internet

技術仕様

分類 Payload
質量 297.00 kg
乾燥質量 275.00 kg
総質量 297.00 kg
長さ 0.20 m
直径 2.80 m
スパン 9.00 m
形状 Box + pan
製造者 SPXS
バスタイプ Starlink
フェーズステータス In Orbit
所有者/国 SPXS/US

大規模コンステレーション

Loading constellations...